Regional Weather Roundup
Issued by NWS

Home | Current Version | Previous Version | Text Only | Print | Product List | Glossary On
Versions: 1 2 3 4 5 6 7 8 9 10 11 12 13 14 15 16 17 18 19 20 21 22 23 24 25 26 27 28 29 30 31 32 33 34 35 36 37 38 39 40 41 42 43 44 45 46 47 48 49 50
000
ASUS43 KLSX 162257
RWRMO

WEATHER SUMMARY FOR MISSOURI
NATIONAL WEATHER SERVICE SPRINGFIELD MO
600 PM CDT MON OCT 16 2017

NOTE: "FAIR" INDICATES FEW OR NO CLOUDS BELOW 12,000 FEET WITH NO
       SIGNIFICANT WEATHER AND/OR OBSTRUCTIONS TO VISIBILITY.
       CURRENT SKY AND/OR WEATHER CONDITIONS ARE NOT AVAILABLE FOR
       CHILLICOTHE AND FARMINGTON.

MOZ001>031-035>038-043-044-053-054-170000-
...NORTHERN AND WESTERN MISSOURI...

CITY           SKY/WX    TMP DP  RH WIND       PRES   REMARKS
KANSAS CTY INT PTCLDY    64  43  46 S9        30.24F
LEE`S SUMMIT   CLEAR     66  41  40 SW10      30.26F
ST JOSEPH      CLEAR     68  40  35 S13       30.21F
CHILLICOTHE      N/A     66  40  38 S5        30.25S

$$
MOZ066>068-077>081-088>096-101>105-170000-
...SOUTHWEST MISSOURI...

CITY           SKY/WX    TMP DP  RH WIND       PRES   REMARKS
SPRINGFIELD    CLEAR     66  35  31 CALM      30.29F
JOPLIN         CLEAR     65  39  38 CALM      30.30F
BRANSON        CLEAR     66  32  28 CALM      30.31F

$$
MOZ032>034-039>042-045>050-055>058-069>072-170000-
...CENTRAL MISSOURI...

CITY           SKY/WX    TMP DP  RH WIND       PRES   REMARKS
COLUMBIA       NOT AVBL
JEFFERSON CITY CLEAR     65  37  35 SW6       30.27F
ROLLA          CLEAR     63  37  38 CALM      30.30S
SEDALIA        CLEAR     65  42  43 SW8       30.28F
WARRENSBURG    CLEAR     64  37  36 S7        30.27F

$$
MOZ051-052-059>065-170000-
...EAST CENTRAL MISSOURI...

CITY           SKY/WX    TMP DP  RH WIND       PRES   REMARKS
ST LOUIS INTL  CLEAR     64  36  35 SW6       30.29F

$$
MOZ072>076-082>087-097>100-106>115-170000-
...SOUTH CENTRAL AND SOUTHEAST MISSOURI...

CITY           SKY/WX    TMP DP  RH WIND       PRES   REMARKS
CAPE GIRARDEAU CLEAR     62  36  37 NE6       30.30F
POPLAR BLUFF   CLEAR     64  37  36 NE5       30.29F
WEST PLAINS    CLEAR     64  33  31 N3        30.31S

$$



USA.gov is the U.S. government's official web portal to all federal, state and local government web resources and services.